OpenBCM V1.08-5-g2f4a (Linux)

Packet Radio Mailbox

IZ3LSV

[San Dona' di P. JN]

 Login: GUEST





  
CX2SA  > KEPS     19.04.13 04:03l 220 Lines 5762 Bytes #999 (0) @ WW
BID : ORB13108.W
Read: GUEST
Subj: Orbital Elements  13108.WEATHER
Path: IZ3LSV<IR1UAW<IK1NHL<CX2SA
Sent: 130419/0256Z @:CX2SA.SAL.URY.SA #:5359 [Salto] FBB7.00e $:ORB13108.W
From: CX2SA@CX2SA.SAL.URY.SA
To  : KEPS@AMSAT


HR AMSAT ORBITAL ELEMENTS FOR WEATHER SATELLITES
FROM WA5QGD FORT WORTH,TX April 18, 2013
BID: ORB13108.W
TO ALL RADIO AMATEURS BT

Satellite: NOAA-10
Catalog number: 16969
Epoch time:      13107.13776120
Element set:     317
Inclination:      098.5503 deg
RA of node:       136.2916 deg
Eccentricity:    0.0013185
Arg of perigee:   068.5847 deg
Mean anomaly:     323.3246 deg
Mean motion:   14.27628002 rev/day
Decay rate:        8.2e-07 rev/day^2
Epoch rev:           38323
Checksum:              291

Satellite: NOAA-11
Catalog number: 19531
Epoch time:      13107.28135855
Element set:     320
Inclination:      098.7114 deg
RA of node:       191.7467 deg
Eccentricity:    0.0012225
Arg of perigee:   078.9033 deg
Mean anomaly:     313.6270 deg
Mean motion:   14.15009503 rev/day
Decay rate:        4.6e-07 rev/day^2
Epoch rev:           26751
Checksum:              274

Satellite: NOAA-12
Catalog number: 21263
Epoch time:      13107.48449947
Element set:     790
Inclination:      098.7015 deg
RA of node:       133.3386 deg
Eccentricity:    0.0014228
Arg of perigee:   041.2012 deg
Mean anomaly:     097.2693 deg
Mean motion:   14.25556412 rev/day
Decay rate:        3.5e-07 rev/day^2
Epoch rev:           13990
Checksum:              290

Satellite: MET-3/5
Catalog number: 21655
Epoch time:      13108.08361397
Element set:     668
Inclination:      082.5534 deg
RA of node:       296.7648 deg
Eccentricity:    0.0012176
Arg of perigee:   279.9519 deg
Mean anomaly:     080.0229 deg
Mean motion:   13.17041963 rev/day
Decay rate:       4.46e-06 rev/day^2
Epoch rev:            4202
Checksum:              313

Satellite: MET-2/21
Catalog number: 22782
Epoch time:      13107.75803094
Element set:     716
Inclination:      082.5481 deg
RA of node:       150.8699 deg
Eccentricity:    0.0022427
Arg of perigee:   022.6303 deg
Mean anomaly:     114.4755 deg
Mean motion:   13.83701906 rev/day
Decay rate:        3.6e-07 rev/day^2
Epoch rev:           99128
Checksum:              301

Satellite: OKEAN-4
Catalog number: 23317
Epoch time:      13108.49013428
Element set:     194
Inclination:      082.5366 deg
RA of node:       105.6634 deg
Eccentricity:    0.0022579
Arg of perigee:   066.5988 deg
Mean anomaly:     094.3656 deg
Mean motion:   14.84353399 rev/day
Decay rate:       8.71e-06 rev/day^2
Epoch rev:               8
Checksum:              316

Satellite: NOAA-14
Catalog number: 23455
Epoch time:      13107.35213707
Element set:     275
Inclination:      098.8030 deg
RA of node:       192.7096 deg
Eccentricity:    0.0010060
Arg of perigee:   165.5901 deg
Mean anomaly:     239.4076 deg
Mean motion:   14.13900993 rev/day
Decay rate:        4.9e-07 rev/day^2
Epoch rev:           94377
Checksum:              298

Satellite: NOAA-15
Catalog number: 25338
Epoch time:      13107.50772117
Element set:     696
Inclination:      098.7215 deg
RA of node:       098.0542 deg
Eccentricity:    0.0009555
Arg of perigee:   307.2494 deg
Mean anomaly:     198.9353 deg
Mean motion:   14.25200966 rev/day
Decay rate:       1.21e-06 rev/day^2
Epoch rev:           77619
Checksum:              320

Satellite: RESURS
Catalog number: 25394
Epoch time:      13107.80571699
Element set:     353
Inclination:      098.3565 deg
RA of node:       086.5561 deg
Eccentricity:    0.0002505
Arg of perigee:   083.7839 deg
Mean anomaly:     337.4193 deg
Mean motion:   14.24327047 rev/day
Decay rate:        1.2e-07 rev/day^2
Epoch rev:           76776
Checksum:              318

Satellite: FENGYUN1
Catalog number: 25730
Epoch time:      13108.87308303
Element set:     853
Inclination:      098.8750 deg
RA of node:       069.1296 deg
Eccentricity:    0.0023018
Arg of perigee:   211.0580 deg
Mean anomaly:     202.7790 deg
Mean motion:   14.10383629 rev/day
Decay rate:      1.131e-05 rev/day^2
Epoch rev:           71768
Checksum:              287

Satellite: OKEAN-0
Catalog number: 25860
Epoch time:      13107.85056190
Element set:     921
Inclination:      097.9846 deg
RA of node:       071.1327 deg
Eccentricity:    0.0001274
Arg of perigee:   074.4865 deg
Mean anomaly:     318.5194 deg
Mean motion:   14.74544239 rev/day
Decay rate:       4.08e-06 rev/day^2
Epoch rev:           73946
Checksum:              316

Satellite: NOAA-16
Catalog number: 26536
Epoch time:      13107.36439828
Element set:     172
Inclination:      099.0488 deg
RA of node:       159.5094 deg
Eccentricity:    0.0009543
Arg of perigee:   308.8938 deg
Mean anomaly:     111.9308 deg
Mean motion:   14.12861132 rev/day
Decay rate:        6.2e-07 rev/day^2
Epoch rev:           64798
Checksum:              330

Satellite: NOAA-17
Catalog number: 27453
Epoch time:      13107.47437271
Element set:      95
Inclination:      098.3150 deg
RA of node:       124.7687 deg
Eccentricity:    0.0010972
Arg of perigee:   349.6221 deg
Mean anomaly:     172.7921 deg
Mean motion:   14.24580734 rev/day
Decay rate:       1.10e-06 rev/day^2
Epoch rev:           56207
Checksum:              296

Satellite: NOAA-18
Catalog number: 28654
Epoch time:      13107.49993308
Element set:     578
Inclination:      099.0940 deg
RA of node:       074.8635 deg
Eccentricity:    0.0014584
Arg of perigee:   023.9046 deg
Mean anomaly:     124.3647 deg
Mean motion:   14.11799096 rev/day
Decay rate:        7.4e-07 rev/day^2
Epoch rev:           40749
Checksum:              341

Satellite: NOAA-19
Catalog number: 33591
Epoch time:      13107.43459443
Element set:     764
Inclination:      098.8998 deg
RA of node:       049.9918 deg
Eccentricity:    0.0013184
Arg of perigee:   239.0371 deg
Mean anomaly:     269.8390 deg
Mean motion:   14.11486854 rev/day
Decay rate:        1.3e-07 rev/day^2
Epoch rev:           21592
Checksum:              342



Read previous mail | Read next mail


 17.12.2025 20:47:00lGo back Go up